{"data":{"norad_id":61232,"epoch":"2026-08-05T06:01:56.633088Z","epoch_age_seconds":4290322,"freshness":"OLD","line1":"1 61232U 24173F   26217.25134992  .03027614  24229-5  10207-2 0  9993","line2":"2 61232  97.3283 318.1952 0013406 275.4402  84.5361 16.25443156105409","mean_motion":16.25443156,"eccentricity":0.0013406,"inclination_deg":97.3283,"raan_deg":318.1952,"arg_perigee_deg":275.4402,"mean_anomaly_deg":84.5361,"bstar":0.0010207,"rev_number":10540,"period_min":88.59122477981,"perigee_km":195.98932072356,"apogee_km":213.63953008536,"semimajor_km":6582.9514254045,"source":"CELESTRAK","updated_at":"2026-08-06T09:00:33.476421Z"}}